Weather History for Fort Worth Alliance, TX

Change the Weather History Date:

Wednesday, May 9, 2012

  Actual Average Record
Temperature  
Mean Temperature 70 °F -  
Max Temperature 82 °F 80 °F 96 °F (2006)
Min Temperature 57 °F 58 °F 57 °F (1997)
Cooling Degree Days 4    
Growing Degree Days 20 (Base 50)    
Moisture  
Dew Point 48 °F    
Average Humidity 50    
Maximum Humidity 81    
Minimum Humidity 21    
Precipitation  
Precipitation 0.00 in - - ()
Sea Level Pressure  
Sea Level Pressure 30.00 in    
Wind  
Wind Speed 5 mph (NNE)    
Max Wind Speed 10 mph    
Max Gust Speed -    
Visibility 10 miles    
Events      
Averages and records for this station are not official NWS values.
T = Trace of Precipitation, MM = Missing Value Source: NWS Daily Summary

Daily Weather History Graph

Daily Weather History Graph

Search for Another Location

Airport:

Trip Planner

Search our weather history database for the weather conditions in past years. The results will help you decide how hot, cold, wet, or windy it might be!

Date:

Astronomy

May. 09, 2012 Rise Set
Actual Time 6:34 AM CDT 8:17 PM CDT
Civil Twilight 6:07 AM CDT 8:44 PM CDT
Nautical Twilight 5:34 AM CDT 9:17 PM CDT
Astronomical Twilight 5:00 AM CDT 9:51 PM CDT
Moon No Moon Rise 9:54 AM CDT (5/9)
Length of Visible Light 14h 37m
Length of Day
13h 43m
Waning Gibbous, 82% of the Moon is Illuminated
May 9
Waning Gibbous
May 12
Last Quarter
May 20
New
May 28
First Quarter
Jun 4
Full

Hourly Weather History & Observations

Time (CDT) Temp. Dew Point Humidity Pressure Visibility Wind Dir Wind Speed Gust Speed Precip Events Conditions
12:53 AM 64.9 °F 55.9 °F 73% 30.02 in 10.0 mi NNE 5.8 mph - N/A   Clear
1:53 AM 64.9 °F 55.0 °F 70% 30.01 in 10.0 mi North 4.6 mph - N/A   Partly Cloudy
2:53 AM 63.0 °F 55.9 °F 78% 30.00 in 10.0 mi NNW 3.5 mph - N/A   Clear
3:53 AM 63.0 °F 55.0 °F 75% 30.01 in 10.0 mi NNW 3.5 mph - N/A   Clear
4:53 AM 63.0 °F 53.1 °F 70% 30.01 in 10.0 mi North 5.8 mph - N/A   Clear
5:53 AM 60.1 °F 52.0 °F 75% 30.03 in 10.0 mi North 5.8 mph - N/A   Scattered Clouds
6:53 AM 57.0 °F 51.1 °F 81% 30.04 in 10.0 mi Calm Calm - N/A   Partly Cloudy
7:53 AM 62.1 °F 52.0 °F 70% 30.06 in 10.0 mi NNW 5.8 mph - N/A   Clear
8:53 AM 66.9 °F 52.0 °F 59% 30.06 in 10.0 mi NNE 6.9 mph - N/A   Clear
9:53 AM 71.1 °F 53.1 °F 53% 30.06 in 10.0 mi North 5.8 mph - N/A   Clear
10:53 AM 73.9 °F 51.1 °F 45% 30.06 in 10.0 mi East 8.1 mph - N/A   Clear
11:53 AM 77.0 °F 48.0 °F 36% 30.05 in 10.0 mi NE 9.2 mph - N/A   Clear
12:53 PM 79.0 °F 46.0 °F 31% 30.02 in 10.0 mi NE 10.4 mph - N/A   Clear
1:53 PM 81.0 °F 42.1 °F 25% 30.00 in 10.0 mi ENE 9.2 mph - N/A   Clear
2:53 PM 82.0 °F 42.1 °F 24% 29.98 in 10.0 mi NE 6.9 mph - N/A   Clear
3:53 PM 82.4 °F 39.2 °F 21% 29.98 in 10.0 mi East 9.2 mph - N/A   Partly Cloudy
4:53 PM 82.9 °F 39.9 °F 22% 29.94 in 10.0 mi East 10.4 mph - N/A   Partly Cloudy
5:53 PM 81.0 °F 42.1 °F 25% 29.93 in 10.0 mi ENE 10.4 mph - N/A   Partly Cloudy
6:53 PM 79.0 °F 41.0 °F 26% 29.92 in 10.0 mi ENE 8.1 mph - N/A   Partly Cloudy
7:53 PM 75.9 °F 43.0 °F 31% 29.92 in 10.0 mi NE 4.6 mph - N/A   Clear
8:53 PM 70.0 °F 44.1 °F 39% 29.94 in 10.0 mi Calm Calm - N/A   Clear
9:53 PM 66.9 °F 46.0 °F 47% 29.96 in 10.0 mi Calm Calm - N/A   Clear
10:53 PM 61.0 °F 48.0 °F 62% 29.96 in 10.0 mi Calm Calm - N/A   Clear
11:53 PM 57.9 °F 48.9 °F 72% 29.96 in 10.0 mi Calm Calm - N/A   Clear